Location: Amberg
(48.0613°N, 10.6820°E)
Time: 07:02:13
(UTC+00:00)

Cosmos 2344 - Pass Details

Date: 18 November 2025
Orbit: 1197 x 3045 km, 63.3° (Epoch: 06 December)

Event Time Altitude Azimuth Distance (km) Brightness Sun altitude
Rises 16:08:31 0° 311° (NW) 4,119 6.7 -5.7°
Reaches altitude 10° 16:11:24 10° 320° (NW) 3,201 5.9 -6.2°
Maximum altitude 16:18:15 36° 27° (NNE) 2,049 4.3 -7.2°
Drops below altitude 10° 16:26:41 10° 92° (E) 3,948 5.6 -8.6°
Enters shadow 16:28:28 - 96° (E) 4,513 5.9 -8.8°
